Satellite-Ground Cal/Val Region Overpasses Predictions

Prediction of Satellite NPP Overpassing Cal/Val Region: PacN

Region Location: (Latitude: 15.00, Longitude: 179.40) to (Latitude: 23.50, Longitude: 200.60).

Table of predicted overpasses for the next 14.0 days since TLE Epoch: 10/26/2024
Interval Starting Time Starting Location Ending Time Ending Location
1 10/28/2024 01:12:36 ( 19.25, 179.99) 10/28/2024 01:13:16 ( 21.60, 179.41)
2 10/28/2024 13:41:39 ( 23.47, 179.59) 10/28/2024 13:41:51 ( 22.77, 179.41)
3 11/02/2024 01:17:47 ( 15.04, 179.40) 11/02/2024 01:17:47 ( 15.04, 179.40)
